Weather History for Georgetown, SC

Change the Weather History Date:

Friday, February 1, 2013

  Actual Average Record
Temperature  
Mean Temperature 44 °F -  
Max Temperature 57 °F 60 °F 71 °F (2012)
Min Temperature 32 °F 37 °F 32 °F (2013)
Degree Days  
Heating Degree Days 20    
Moisture  
Dew Point 26 °F    
Average Humidity 52    
Maximum Humidity 81    
Minimum Humidity 28    
Precipitation  
Precipitation 0.00 in - - ()
Sea Level Pressure  
Sea Level Pressure 30.22 in    
Wind  
Wind Speed 10 mph (WNW)    
Max Wind Speed 21 mph    
Max Gust Speed 29 mph    
Visibility 10 miles    
Events      
Averages and records for this station are not official NWS values.
T = Trace of Precipitation, MM = Missing Value Source: NWS Daily Summary

Daily Weather History Graph

Daily Weather History Graph

Search for Another Location

Airport:

Trip Planner

Search our weather history database for the weather conditions in past years. The results will help you decide how hot, cold, wet, or windy it might be!

Date:

Astronomy

Feb. 01, 2013 Rise Set
Actual Time 7:12 AM EST 5:49 PM EST
Civil Twilight 6:46 AM EST 6:15 PM EST
Nautical Twilight 6:17 AM EST 6:44 PM EST
Astronomical Twilight 5:48 AM EST 7:14 PM EST
Moon 11:32 PM EST (2/1) 10:05 AM EST (2/1)
Length of Visible Light 11h 28m
Length of Day
10h 36m
Waning Gibbous, 70% of the Moon is Illuminated
Feb 1
Waning Gibbous
Feb 3
Last Quarter
Feb 10
New
Feb 17
First Quarter
Feb 25
Full

Hourly Weather History & Observations

Time (EST) Temp. Windchill Dew Point Humidity Pressure Visibility Wind Dir Wind Speed Gust Speed Precip Events Conditions
12:15 AM 39.2 °F 33.6 °F 30.2 °F 70% 30.17 in 10.0 mi WSW 8.1 mph - N/A   Clear
12:35 AM 41.0 °F 35.8 °F 30.2 °F 65% 30.17 in 10.0 mi WSW 8.1 mph - N/A   Clear
12:55 AM 41.0 °F 35.8 °F 30.2 °F 65% 30.16 in 10.0 mi West 8.1 mph - N/A   Clear
1:15 AM 41.0 °F 37.1 °F 30.2 °F 65% 30.16 in 10.0 mi WSW 5.8 mph - N/A   Clear
1:35 AM 41.0 °F 36.4 °F 30.2 °F 65% 30.16 in 10.0 mi West 6.9 mph - N/A   Clear
2:15 AM 39.2 °F 33.6 °F 30.2 °F 70% 30.16 in 10.0 mi WSW 8.1 mph - N/A   Clear
2:35 AM 39.2 °F 33.6 °F 30.2 °F 70% 30.15 in 10.0 mi WSW 8.1 mph - N/A   Clear
2:55 AM 39.2 °F 33.6 °F 30.2 °F 70% 30.16 in 10.0 mi WSW 8.1 mph - N/A   Clear
3:15 AM 37.4 °F 31.4 °F 30.2 °F 75% 30.16 in 10.0 mi WSW 8.1 mph - N/A   Clear
3:35 AM 37.4 °F 31.4 °F 30.2 °F 75% 30.16 in 10.0 mi SW 8.1 mph - N/A   Clear
3:55 AM 35.6 °F 29.9 °F 30.2 °F 81% 30.16 in 10.0 mi SW 6.9 mph - N/A   Clear
4:15 AM 37.4 °F 32.1 °F 30.2 °F 75% 30.16 in 10.0 mi SW 6.9 mph - N/A   Clear
4:55 AM 37.4 °F 31.4 °F 30.2 °F 75% 30.15 in 10.0 mi SW 8.1 mph - N/A   Clear
5:15 AM 37.4 °F 30.3 °F 30.2 °F 75% 30.15 in 10.0 mi SW 10.4 mph - N/A   Clear
5:35 AM 37.4 °F 31.4 °F 30.2 °F 75% 30.15 in 10.0 mi SW 8.1 mph - N/A   Clear
5:55 AM 37.4 °F 31.4 °F 30.2 °F 75% 30.15 in 10.0 mi SW 8.1 mph - N/A   Clear
6:15 AM 37.4 °F 30.8 °F 30.2 °F 75% 30.16 in 10.0 mi SW 9.2 mph - N/A   Clear
6:35 AM 37.4 °F 30.8 °F 30.2 °F 75% 30.15 in 10.0 mi SW 9.2 mph - N/A   Clear
6:55 AM 41.0 °F 35.2 °F 30.2 °F 65% 30.15 in 10.0 mi SW 9.2 mph - N/A   Clear
7:15 AM 41.0 °F 34.7 °F 30.2 °F 65% 30.15 in 10.0 mi WSW 10.4 mph 16.1 mph N/A   Clear
7:35 AM 41.0 °F 35.2 °F 30.2 °F 65% 30.15 in 10.0 mi SW 9.2 mph - N/A   Clear
7:55 AM 42.8 °F 37.0 °F 30.2 °F 61% 30.15 in 10.0 mi WSW 10.4 mph - N/A   Clear
8:15 AM 44.6 °F 39.2 °F 30.2 °F 57% 30.16 in 10.0 mi WSW 10.4 mph - N/A   Clear
8:55 AM 46.4 °F 40.4 °F 30.2 °F 53% 30.17 in 10.0 mi WSW 13.8 mph 20.7 mph N/A   Clear
9:15 AM 48.2 °F - 32.0 °F 54% 30.17 in 10.0 mi WSW 18.4 mph 24.2 mph N/A   Clear
9:35 AM 50.0 °F - 32.0 °F 50% 30.18 in 10.0 mi WSW 17.3 mph 27.6 mph N/A   Clear
9:55 AM 50.0 °F - 32.0 °F 50% 30.18 in 10.0 mi West 13.8 mph 20.7 mph N/A   Clear
10:15 AM 51.8 °F - 32.0 °F 47% 30.17 in 10.0 mi West 18.4 mph 25.3 mph N/A   Clear
10:35 AM 53.6 °F - 32.0 °F 44% 30.16 in 10.0 mi West 15.0 mph 28.8 mph N/A   Clear
10:55 AM 55.4 °F - 32.0 °F 41% 30.17 in 10.0 mi West 19.6 mph 26.5 mph N/A   Clear
11:15 AM 53.6 °F - 32.0 °F 44% 30.17 in 10.0 mi West 17.3 mph 28.8 mph N/A   Clear
11:35 AM 53.6 °F - 32.0 °F 44% 30.18 in 10.0 mi WNW 15.0 mph 24.2 mph N/A   Clear
11:55 AM 53.6 °F - 32.0 °F 44% 30.19 in 10.0 mi West 20.7 mph 27.6 mph N/A   Clear
12:15 PM 55.4 °F - 32.0 °F 41% 30.18 in 10.0 mi West 16.1 mph 26.5 mph N/A   Clear
12:35 PM 55.4 °F - 30.2 °F 38% 30.18 in 10.0 mi WNW 12.7 mph 26.5 mph N/A   Clear
12:55 PM 55.4 °F - 30.2 °F 38% 30.18 in 10.0 mi WNW 17.3 mph 24.2 mph N/A   Clear
1:15 PM 57.2 °F - 28.4 °F 33% 30.18 in 10.0 mi NW 17.3 mph 26.5 mph N/A   Clear
1:35 PM 55.4 °F - 28.4 °F 36% 30.18 in 10.0 mi NW 13.8 mph 21.9 mph N/A   Clear
1:55 PM 55.4 °F - 28.4 °F 36% 30.18 in 10.0 mi WNW 11.5 mph 17.3 mph N/A   Clear
2:15 PM 55.4 °F - 30.2 °F 38% 30.19 in 10.0 mi NW 11.5 mph 20.7 mph N/A   Clear
2:35 PM 55.4 °F - 32.0 °F 41% 30.20 in 10.0 mi NNW 15.0 mph 20.7 mph N/A   Clear
2:55 PM 53.6 °F - 30.2 °F 41% 30.21 in 10.0 mi North 11.5 mph 21.9 mph N/A   Clear
3:15 PM 53.6 °F - 30.2 °F 41% 30.21 in 10.0 mi NW 11.5 mph 18.4 mph N/A   Clear
3:35 PM 53.6 °F - 28.4 °F 38% 30.22 in 10.0 mi WNW 13.8 mph 19.6 mph N/A   Clear
3:55 PM 53.6 °F - 26.6 °F 35% 30.23 in 10.0 mi NNW 11.5 mph 18.4 mph N/A   Unknown
4:15 PM 51.8 °F - 24.8 °F 35% 30.24 in 10.0 mi NW 10.4 mph 19.6 mph N/A   Unknown
4:35 PM 51.8 °F - 23.0 °F 33% 30.25 in 10.0 mi NW 10.4 mph - N/A   Clear
4:55 PM 50.0 °F - 19.4 °F 30% 30.26 in 10.0 mi NW 8.1 mph 16.1 mph N/A   Clear
5:15 PM 50.0 °F - 17.6 °F 28% 30.27 in 10.0 mi NNW 8.1 mph - N/A   Clear
5:35 PM 46.4 °F 42.9 °F 19.4 °F 34% 30.27 in 10.0 mi North 6.9 mph - N/A   Clear
5:55 PM 44.6 °F 40.7 °F 19.4 °F 37% 30.28 in 10.0 mi North 6.9 mph - N/A   Clear
6:15 PM 42.8 °F 39.3 °F 17.6 °F 36% 30.29 in 10.0 mi North 5.8 mph - N/A   Clear
6:35 PM 41.0 °F 37.1 °F 17.6 °F 39% 30.30 in 10.0 mi North 5.8 mph - N/A   Clear
6:55 PM 39.2 °F 37.0 °F 19.4 °F 45% 30.31 in 10.0 mi North 3.5 mph - N/A   Clear
7:15 PM 37.4 °F 33.8 °F 19.4 °F 48% 30.32 in 10.0 mi North 4.6 mph - N/A   Clear
7:35 PM 37.4 °F 33.8 °F 17.6 °F 45% 30.32 in 10.0 mi NNE 4.6 mph - N/A   Clear
7:55 PM 37.4 °F 32.1 °F 17.6 °F 45% 30.33 in 10.0 mi North 6.9 mph - N/A   Clear
8:15 PM 35.6 °F 30.7 °F 17.6 °F 48% 30.34 in 10.0 mi NE 5.8 mph - N/A   Clear
8:35 PM 35.6 °F 30.7 °F 17.6 °F 48% 30.34 in 10.0 mi NE 5.8 mph - N/A   Clear
9:15 PM 35.6 °F 30.7 °F 17.6 °F 48% 30.35 in 10.0 mi NNE 5.8 mph - N/A   Clear
9:35 PM 33.8 °F 27.7 °F 17.6 °F 52% 30.36 in 10.0 mi North 6.9 mph - N/A   Clear
9:55 PM 33.8 °F 29.6 °F 15.8 °F 48% 30.36 in 10.0 mi NNE 4.6 mph - N/A   Clear
10:15 PM 33.8 °F 28.6 °F 15.8 °F 48% 30.36 in 10.0 mi NNE 5.8 mph - N/A   Clear
10:55 PM 32.0 °F 25.6 °F 17.6 °F 55% 30.37 in 10.0 mi NNE 6.9 mph - N/A   Clear
11:15 PM 32.0 °F 26.4 °F 15.8 °F 51% 30.37 in 10.0 mi NNE 5.8 mph - N/A   Clear
11:35 PM 32.0 °F 26.4 °F 15.8 °F 51% 30.38 in 10.0 mi NNE 5.8 mph - N/A   Clear
11:55 PM 32.0 °F 25.6 °F 15.8 °F 51% 30.38 in 10.0 mi NNE 6.9 mph - N/A   Clear